| time (UTC) | temp F | wind direction | speed MPH | gust MPH | rain 1hr in | rain 24hr in | rain mn in | humidity % | barometer mb |
| 20260504050107 | 56 | 200 | 1.0 | 4.0 | 0.00 | 0.00 | 0.00 | 58 | 1012.6 |
| 20260504044601 | 56 | 200 | 2.0 | 6.0 | 0.00 | 0.00 | 0.00 | 57 | 1012.4 |
| 20260504043055 | 56 | 194 | 2.0 | 5.0 | 0.00 | 0.00 | 0.00 | 57 | 1012.4 |
| 20260504041558 | 56 | 181 | 2.0 | 4.0 | 0.00 | 0.00 | 0.00 | 56 | 1012.2 |
| 20260504040029 | 54 | 187 | 2.0 | 7.0 | 0.00 | 0.00 | 0.00 | 58 | 1012.3 |
| 20260504034524 | 55 | 171 | 2.0 | 6.0 | 0.00 | 0.00 | 0.00 | 57 | 1012.2 |
| 20260504033017 | 55 | 169 | 3.0 | 6.0 | 0.00 | 0.00 | 0.00 | 56 | 1012.3 |
| 20260504031513 | 55 | 180 | 3.0 | 7.0 | 0.00 | 0.00 | 0.00 | 55 | 1012.1 |
| 20260504024529 | 57 | 188 | 4.0 | 10.0 | 0.00 | 0.00 | 0.00 | 53 | 1011.9 |
| 20260504023009 | 57 | 171 | 6.0 | 11.0 | 0.00 | 0.00 | 0.00 | 52 | 1011.5 |
| 20260504021516 | 57 | 174 | 7.0 | 12.0 | 0.00 | 0.00 | 0.00 | 52 | 1011.4 |
| 20260504020059 | 57 | 162 | 5.0 | 11.0 | 0.00 | 0.00 | 0.00 | 52 | 1011.5 |
| 20260504014606 | 57 | 188 | 7.0 | 10.0 | 0.00 | 0.00 | 0.00 | 53 | 1011.3 |
| 20260504013101 | 57 | 196 | 5.0 | 12.0 | 0.00 | 0.00 | 0.00 | 53 | 1011.3 |
| 20260504011552 | 58 | 186 | 7.0 | 14.0 | 0.00 | 0.00 | 0.00 | 53 | 1011.3 |
| 20260504010033 | 58 | 180 | 7.0 | 12.0 | 0.00 | 0.00 | 0.00 | 53 | 1011.3 |
| 20260504004530 | 58 | 178 | 6.0 | 11.0 | 0.00 | 0.00 | 0.00 | 51 | 1011.4 |
| 20260504003016 | 60 | 206 | 8.0 | 13.0 | 0.00 | 0.00 | 0.00 | 50 | 1011.5 |
| 20260504001507 | 60 | 175 | 8.0 | 12.0 | 0.00 | 0.00 | 0.00 | 50 | 1011.7 |
| 20260504000112 | 60 | 173 | 6.0 | 12.0 | 0.00 | 0.00 | 0.00 | 50 | 1011.8 |
| 20260503234547 | 60 | 159 | 5.0 | 11.0 | 0.00 | 0.00 | 0.00 | 50 | 1011.9 |
| 20260503233032 | 60 | 171 | 5.0 | 10.0 | 0.00 | 0.00 | 0.00 | 49 | 1012.1 |
| 20260503231529 | 61 | 166 | 4.0 | 8.0 | 0.00 | 0.00 | 0.00 | 48 | 1012.1 |
| 20260503230057 | 62 | 196 | 5.0 | 10.0 | 0.00 | 0.00 | 0.00 | 48 | 1012.2 |
| 20260503224547 | 62 | 182 | 4.0 | 10.0 | 0.00 | 0.00 | 0.00 | 47 | 1012.3 |
| 20260503223049 | 62 | 146 | 6.0 | 10.0 | 0.00 | 0.00 | 0.00 | 47 | 1012.3 |
| 20260503221551 | 63 | 168 | 5.0 | 10.0 | 0.00 | 0.00 | 0.00 | 46 | 1012.3 |
| 20260503220019 | 63 | 188 | 6.0 | 11.0 | 0.00 | 0.00 | 0.00 | 46 | 1012.5 |
| 20260503214511 | 64 | 166 | 6.0 | 14.0 | 0.00 | 0.00 | 0.00 | 45 | 1012.7 |
| 20260503213002 | 63 | 151 | 6.0 | 12.0 | 0.00 | 0.00 | 0.00 | 45 | 1012.7 |
| 20260503211621 | 63 | 191 | 4.0 | 11.0 | 0.00 | 0.00 | 0.00 | 45 | 1012.4 |
| 20260503210048 | 63 | 175 | 4.0 | 8.0 | 0.00 | 0.00 | 0.00 | 45 | 1012.6 |
| 20260503204551 | 64 | 192 | 5.0 | 10.0 | 0.00 | 0.00 | 0.00 | 43 | 1012.7 |
| 20260503203106 | 65 | 178 | 6.0 | 10.0 | 0.00 | 0.00 | 0.00 | 42 | 1012.7 |
| 20260503201556 | 65 | 172 | 5.0 | 10.0 | 0.00 | 0.00 | 0.00 | 41 | 1012.8 |